Weather History for Louisville, KY

Change the Weather History Date:

Wednesday, June 19, 2013

  Actual Average Record
Temperature  
Mean Temperature 75 °F 77 °F  
Max Temperature 85 °F 86 °F 99 °F (1888)
Min Temperature 65 °F 67 °F 53 °F (1959)
Degree Days  
Heating Degree Days 0 0  
Month to date heating degree days 0 1  
Since 1 June heating degree days 0 1  
Since 1 July heating degree days 4115 4093  
Cooling Degree Days 10 12  
Month to date cooling degree days 183 182  
Year to date cooling degree days 411 356  
Since 1 June cooling degree days 183 182  
Growing Degree Days 24 (Base 50)    
Moisture  
Dew Point 61 °F    
Average Humidity 66    
Maximum Humidity 87    
Minimum Humidity 44    
Precipitation  
Precipitation 0.00 in 0.11 in 1.90 in (1946)
Month to date precipitation 1.05 2.51  
Year to date precipitation 20.10 22.38  
Snow  
Snow 0.00 in 0.00 in - ()
Month to date snowfall 0.0 0.0  
Since 1 June snowfall 0.0 0.0  
Since 1 July snowfall 9.8 12.5  
Snow Depth 0.00 in    
Sea Level Pressure  
Sea Level Pressure 30.03 in    
Wind  
Wind Speed 5 mph (ENE)    
Max Wind Speed 12 mph    
Max Gust Speed 17 mph    
Visibility 10 miles    
Events      
T = Trace of Precipitation, MM = Missing Value Source: NWS Daily Summary

Daily Weather History Graph

Daily Weather History Graph

Search for Another Location

Airport:

Trip Planner

Search our weather history database for the weather conditions in past years. The results will help you decide how hot, cold, wet, or windy it might be!

Date:

Astronomy

Jun. 19, 2013 Rise Set
Actual Time 6:19 AM EDT 9:09 PM EDT
Civil Twilight 5:48 AM EDT 9:40 PM EDT
Nautical Twilight 5:08 AM EDT 10:20 PM EDT
Astronomical Twilight 4:23 AM EDT 11:05 PM EDT
Moon 5:03 PM EDT (6/19) 3:01 AM EDT (6/19)
Length of Visible Light 15h 52m
Length of Day
14h 49m
Waxing Gibbous, 80% of the Moon is Illuminated
Jun 19
Waxing Gibbous
Jun 23
Full
Jun 30
Last Quarter
Jul 8
New
Jul 15
First Quarter

Hourly Weather History & Observations

Time (EDT) Temp. Heat Index Dew Point Humidity Pressure Visibility Wind Dir Wind Speed Gust Speed Precip Events Conditions
12:56 AM 69.1 °F - 61.0 °F 75% 29.98 in 10.0 mi SSE 5.8 mph - N/A   Mostly Cloudy
1:56 AM 68.0 °F - 61.0 °F 78% 29.97 in 10.0 mi Calm Calm - N/A   Overcast
2:56 AM 69.1 °F - 61.0 °F 75% 29.98 in 10.0 mi Calm Calm - N/A   Mostly Cloudy
3:56 AM 66.9 °F - 63.0 °F 87% 29.99 in 10.0 mi North 4.6 mph - N/A   Mostly Cloudy
4:56 AM 66.0 °F - 63.0 °F 90% 29.98 in 8.0 mi NNE 3.5 mph - N/A   Mostly Cloudy
5:56 AM 66.0 °F - 62.1 °F 87% 29.99 in 10.0 mi Calm Calm - N/A   Mostly Cloudy
6:56 AM 66.9 °F - 62.1 °F 84% 30.02 in 10.0 mi NE 3.5 mph - N/A   Scattered Clouds
7:56 AM 68.0 °F - 61.0 °F 78% 30.04 in 10.0 mi ENE 5.8 mph - N/A   Scattered Clouds
8:56 AM 71.1 °F - 60.1 °F 68% 30.06 in 10.0 mi ENE 8.1 mph - N/A   Scattered Clouds
9:56 AM 73.0 °F - 61.0 °F 66% 30.06 in 10.0 mi East 5.8 mph - N/A   Scattered Clouds
10:56 AM 75.9 °F - 63.0 °F 64% 30.06 in 10.0 mi Variable 3.5 mph - N/A   Scattered Clouds
11:56 AM 79.0 °F - 62.1 °F 56% 30.07 in 10.0 mi NE 8.1 mph - N/A   Scattered Clouds
12:56 PM 80.1 °F 81.1 °F 61.0 °F 52% 30.07 in 10.0 mi NNE 9.2 mph - N/A   Scattered Clouds
1:56 PM 82.0 °F 83.0 °F 62.1 °F 51% 30.06 in 10.0 mi East 8.1 mph - N/A   Scattered Clouds
2:56 PM 81.0 °F 81.7 °F 61.0 °F 50% 30.05 in 10.0 mi NE 8.1 mph - N/A   Mostly Cloudy
3:56 PM 82.9 °F 83.2 °F 60.1 °F 46% 30.04 in 10.0 mi ENE 4.6 mph - N/A   Scattered Clouds
4:56 PM 84.0 °F 84.4 °F 61.0 °F 46% 30.03 in 10.0 mi East 8.1 mph - N/A   Scattered Clouds
5:56 PM 82.0 °F 82.1 °F 59.0 °F 45% 30.03 in 10.0 mi Variable 4.6 mph - N/A   Scattered Clouds
6:56 PM 82.9 °F 83.2 °F 60.1 °F 46% 30.03 in 10.0 mi SE 4.6 mph - N/A   Scattered Clouds
7:56 PM 82.0 °F 82.4 °F 60.1 °F 47% 30.04 in 10.0 mi East 5.8 mph - N/A   Mostly Cloudy
8:56 PM 80.1 °F 81.1 °F 61.0 °F 52% 30.04 in 10.0 mi ESE 6.9 mph - N/A   Scattered Clouds
9:56 PM 78.1 °F - 61.0 °F 56% 30.05 in 10.0 mi East 5.8 mph - N/A   Partly Cloudy
10:56 PM 75.9 °F - 61.0 °F 60% 30.08 in 10.0 mi East 5.8 mph - N/A   Clear
11:56 PM 75.9 °F - 62.1 °F 62% 30.09 in 10.0 mi ENE 5.8 mph - N/A   Partly Cloudy